Change the Weather History Date:

Friday, November 1, 2013

  Actual Average Record
Temperature  
Mean Temperature 64 °F -  
Max Temperature 69 °F 57 °F 73 °F (2007)
Min Temperature 58 °F 47 °F 42 °F (2005)
Degree Days  
Heating Degree Days 2    
Growing Degree Days 14 (Base 50)    
Moisture  
Dew Point 52 °F    
Average Humidity 72    
Maximum Humidity 82    
Minimum Humidity 52    
Precipitation  
Precipitation 0.00 in - - ()
Sea Level Pressure  
Sea Level Pressure 30.23 in    
Wind  
Wind Speed 10 mph ()    
Max Wind Speed 17 mph    
Max Gust Speed 18 mph    
Visibility 6.2 miles    
Events      
Averages and records for this station are not official NWS values.
T = Trace of Precipitation, MM = Missing Value Source: Averaged Metar Reports

Daily Weather History Graph

Daily Weather History Graph

Search for Another Location

Airport or City:

Trip Planner

Search our weather history database for the weather conditions in past years. The results will help you decide how hot, cold, wet, or windy it might be!

Date:

Astronomy

Nov. 01, 2013 Rise Set
Actual Time 6:35 AM EET 5:00 PM EET
Civil Twilight 6:06 AM EET 5:29 PM EET
Nautical Twilight 5:34 AM EET 6:01 PM EET
Astronomical Twilight 5:02 AM EET 6:33 PM EET
Moon 4:05 AM EET (11/1) 3:42 PM EET (11/1)
Length of Visible Light 11h 22m
Length of Day
10h 25m
Waning Crescent, 6% of the Moon is Illuminated
Nov 1
Waning Crescent
Nov 3
New
Nov 10
First Quarter
Nov 17
Full
Nov 25
Last Quarter

Hourly Weather History & Observations

Time (EET) Temp. Dew Point Humidity Pressure Visibility Wind Dir Wind Speed Gust Speed Precip Events Conditions
12:20 AM 59.0 °F 51.8 °F 77% 30.27 in 6.2 mi NE 9.2 mph - N/A   Mostly Cloudy
12:50 AM 59.0 °F 51.8 °F 77% 30.27 in 6.2 mi NE 11.5 mph - N/A   Mostly Cloudy
1:20 AM 59.0 °F 51.8 °F 77% 30.27 in 6.2 mi NE 11.5 mph - N/A   Mostly Cloudy
1:50 AM 59.0 °F 51.8 °F 77% 30.27 in 6.2 mi NE 9.2 mph - N/A   Mostly Cloudy
2:20 AM 59.0 °F 51.8 °F 77% 30.27 in 6.2 mi ENE 10.4 mph - N/A   Mostly Cloudy
2:50 AM 59.0 °F 51.8 °F 77% 30.27 in 6.2 mi ENE 8.1 mph - N/A   Mostly Cloudy
3:20 AM 59.0 °F 53.6 °F 82% 30.27 in 6.2 mi NE 9.2 mph - N/A   Mostly Cloudy
3:50 AM 59.0 °F 53.6 °F 82% 30.24 in 6.2 mi NE 8.1 mph - N/A   Mostly Cloudy
4:20 AM 59.0 °F 51.8 °F 77% 30.24 in 6.2 mi NE 10.4 mph - N/A   Mostly Cloudy
4:50 AM 59.0 °F 53.6 °F 82% 30.27 in 6.2 mi NE 10.4 mph - N/A   Mostly Cloudy
5:20 AM 59.0 °F 51.8 °F 77% 30.24 in 6.2 mi NNE 10.4 mph - N/A   Mostly Cloudy
5:50 AM 59.0 °F 51.8 °F 77% 30.24 in 6.2 mi NNE 11.5 mph - N/A   Mostly Cloudy
6:20 AM 59.0 °F 51.8 °F 77% 30.24 in 6.2 mi NE 10.4 mph - N/A   Mostly Cloudy
6:50 AM 59.0 °F 51.8 °F 77% 30.24 in 6.2 mi NNE 10.4 mph - N/A   Mostly Cloudy
7:20 AM 59.0 °F 51.8 °F 77% 30.27 in 6.2 mi NNE 9.2 mph - N/A   Mostly Cloudy
7:50 AM 59.0 °F 51.8 °F 77% 30.27 in 6.2 mi NNE 9.2 mph - N/A   Mostly Cloudy
8:00 AM 59 °F 53 °F 73% 30.28 in 6 mi NNE 9.2 mph - -   Mostly Cloudy
8:20 AM 60.8 °F 53.6 °F 77% 30.27 in 6.2 mi Variable 6.9 mph 18.4 mph N/A   Mostly Cloudy
8:50 AM 60.8 °F 51.8 °F 72% 30.27 in 6.2 mi Variable 9.2 mph - N/A   Mostly Cloudy
9:20 AM 62.6 °F 51.8 °F 68% 30.27 in 6.2 mi NE 9.2 mph - N/A   Mostly Cloudy
9:50 AM 62.6 °F 51.8 °F 68% 30.27 in 6.2 mi NE 9.2 mph - N/A   Mostly Cloudy
10:20 AM 62.6 °F 51.8 °F 68% 30.24 in 6.2 mi NE 10.4 mph - N/A   Mostly Cloudy
10:50 AM 62.6 °F 51.8 °F 68% 30.24 in 6.2 mi NE 10.4 mph - N/A   Mostly Cloudy
11:20 AM 62.6 °F 51.8 °F 68% 30.24 in 6.2 mi NNE 11.5 mph - N/A   Mostly Cloudy
11:50 AM 62.6 °F 51.8 °F 68% 30.24 in 6.2 mi NE 10.4 mph - N/A   Mostly Cloudy
12:20 PM 64.4 °F 51.8 °F 64% 30.21 in 6.2 mi NNE 11.5 mph - N/A   Mostly Cloudy
12:50 PM 64.4 °F 51.8 °F 64% 30.21 in 6.2 mi NNE 13.8 mph - N/A   Scattered Clouds
1:20 PM 64.4 °F 51.8 °F 64% 30.21 in 6.2 mi NNE 15.0 mph - N/A   Scattered Clouds
1:50 PM 64.4 °F 51.8 °F 64% 30.21 in 6.2 mi NNE 11.5 mph - N/A   Scattered Clouds
2:00 PM 65 °F 52 °F 52% 30.22 in 6 mi NNE 11.5 mph - -   Partly Cloudy
2:20 PM 64.4 °F 51.8 °F 64% 30.21 in 6.2 mi NNE 13.8 mph - N/A   Scattered Clouds
2:50 PM 62.6 °F 51.8 °F 68% 30.21 in 6.2 mi NNE 16.1 mph - N/A   Scattered Clouds
3:20 PM 62.6 °F 51.8 °F 68% 30.21 in 6.2 mi NNE 15.0 mph - N/A   Scattered Clouds
3:50 PM 62.6 °F 51.8 °F 68% 30.21 in 6.2 mi NNE 17.3 mph - N/A   Scattered Clouds
4:20 PM 62.6 °F 53.6 °F 72% 30.21 in 6.2 mi NNE 15.0 mph - N/A   Scattered Clouds
4:50 PM 62.6 °F 51.8 °F 68% 30.21 in 6.2 mi NE 13.8 mph - N/A   Scattered Clouds
5:20 PM 62.6 °F 51.8 °F 68% 30.21 in 6.2 mi NE 13.8 mph - N/A   Mostly Cloudy
5:50 PM 60.8 °F 51.8 °F 72% 30.21 in 6.2 mi NE 12.7 mph - N/A   Mostly Cloudy
6:20 PM 60.8 °F 51.8 °F 72% 30.21 in 6.2 mi NE 11.5 mph - N/A   Mostly Cloudy
6:50 PM 60.8 °F 51.8 °F 72% 30.21 in 6.2 mi NE 10.4 mph - N/A   Mostly Cloudy
7:20 PM 62.6 °F 51.8 °F 68% 30.21 in 6.2 mi NE 12.7 mph - N/A   Mostly Cloudy
7:50 PM 60.8 °F 51.8 °F 72% 30.21 in 6.2 mi NE 10.4 mph - N/A   Mostly Cloudy
8:00 PM 61 °F 52 °F 64% 30.21 in 6 mi NE 10.4 mph - -   Mostly Cloudy
8:20 PM 62.6 °F 51.8 °F 68% 30.18 in 6.2 mi ENE 10.4 mph - N/A   Scattered Clouds
8:50 PM 60.8 °F 51.8 °F 72% 30.18 in 6.2 mi NE 9.2 mph - N/A   Mostly Cloudy
9:20 PM 60.8 °F 51.8 °F 72% 30.21 in 6.2 mi NE 8.1 mph - N/A   Scattered Clouds
9:50 PM 60.8 °F 51.8 °F 72% 30.18 in 6.2 mi NE 10.4 mph - N/A   Scattered Clouds
10:20 PM 60.8 °F 51.8 °F 72% 30.18 in 6.2 mi NE 6.9 mph - N/A   Scattered Clouds
10:50 PM 60.8 °F 51.8 °F 72% 30.18 in 6.2 mi NE 9.2 mph - N/A   Scattered Clouds
11:20 PM 59.0 °F 51.8 °F 77% 30.18 in 6.2 mi NE 10.4 mph - N/A   Scattered Clouds
11:50 PM 60.8 °F 51.8 °F 72% 30.18 in 6.2 mi NE 9.2 mph - N/A   Mostly Cloudy